ALCOMSAT 1 (43039 NORAD) Tracking and Keplerian Element Data

This shows tracking and keplerian element data for the satellite.

Feedback or suggestion? Click here.




ElementValue
Catalog43039
NameALCOMSAT 1
Epoch Orbit354
Epoch Day322.90808064
Epoch Year2018
RAAN302.1631
Inclination0.0296
Eccentricity0.0002714
Argument of Perigee258.5258
Mean Anonmoly159.3348
Mean Motion1.00269979
Decay Rate-1.77E-06
L11 43039U 17078A 18322.90808064 -.00000177 00000-0 00000+0 0 9998
L22 43039 0.0296 302.1631 0002714 258.5258 159.3348 1.00269979 3541

Live tracking and technical data element details for ALCOMSAT 1 (NORAD 43039). ALCOMSAT 1 can be tracked NOW for your location showing map with azimuth and elevation plus other details from your city location.

Track the satellite on the map from your city or location and see movement details for azimuth, elevation, latitude, longitude, range, height, and movement on the map or in text.







IsCatalogInMostPopularTable: catalog: 43039, numindb: 140
Update: records affected: 1



GetName: 43039 ALCOMSAT 1

Hit Count: updated at: Mon, 19 Nov 2018 11:04:34 GMT